User: anonymous   Login
Location: Theydon Bois
(51.6750°N, 0.1050°E)
Time: 11:53:24
(UTC+01:00)
Language:

H-2A R/B - Orbit

View from above orbital plane
View from above orbital plane
View from above satellite
View from above satellite

Ground track
Ground track

The orbit data is extracted from the following two-line orbital elements,

1 27601U 02056E   18202.78570935  .00000039  00000-0  29390-4 0  9995
2 27601  98.3251 260.6250 0072057 188.7422 281.1533 14.31848124814990
Epoch (UTC): 21 July 2018 18:51:25
Eccentricity: 0.0072057
inclination: 98.3251°
perigee height: 734 km
apogee height: 837 km
right ascension of ascending node: 260.6250°
argument of perigee: 188.7422°
revolutions per day: 14.31848124
mean anomaly at epoch: 281.1533°
orbit number at epoch: 81499

The dashed part of the orbit path shows where the satellite is in the earth's shadow,  

DLR